カタログに戻る

KUIPER-00121

運用中通信LEO
NORAD 65950·PAYLOAD·🇺🇸 United States

打ち上げ Oct 14, 2025 から Cape Canaveral Space Force Station

Loading…

次のパス (今後24時間)

TLE

最新Source: CelesTrak SupGP

元期: Sep 14, 2026, 21:46 UTC

1 65950C 25228D   26257.90702546 -.00014770  00000+0 -19335-2 0  2579
2 65950  51.8985 236.3651 0000780  63.6983  36.3912 14.79944678    13

AllMySatでKUIPER-00121をリアルタイム追跡

Download on the App Store